Winnipeg 'A' Cs, Canada

1:53 PM CST on February 08, 2016 (GMT -0600)
Winnipeg International

Weather History for CYWG - January, 2014

Change the Weather History Date:

Tuesday, January 14, 2014

  Actual Average Record
Temperature  
Mean Temperature -2 °F -  
Max Temperature 8 °F 7 °F 32 °F (2015)
Min Temperature -13 °F -5 °F -34 °F (2009)
Degree Days  
Heating Degree Days 66    
Moisture  
Dew Point -2 °F    
Average Humidity 80    
Maximum Humidity 85    
Minimum Humidity 71    
Precipitation  
Precipitation 0.00 in - - ()
Sea Level Pressure  
Sea Level Pressure 30.11 in    
Wind  
Wind Speed 9 mph ()    
Max Wind Speed 21 mph    
Max Gust Speed 25 mph    
Visibility 8.2 miles    
Events Snow    
Averages and records for this station are not official NWS values.
T = Trace of Precipitation, MM = Missing Value Source: Averaged Metar Reports

Daily Weather History Graph

Daily Weather History Graph

Search for Another Location

Airport or City:

Trip Planner

Search our weather history database for the weather conditions in past years. The results will help you decide how hot, cold, wet, or windy it might be!

Date:

Astronomy

Jan. 14, 2014 Rise Set
Actual Time 8:21 AM CST 4:54 PM CST
Civil Twilight 7:44 AM CST 5:31 PM CST
Nautical Twilight 7:04 AM CST 6:12 PM CST
Astronomical Twilight 6:25 AM CST 6:50 PM CST
Moon 4:04 PM CST (1/14) 6:54 AM CST (1/14)
Length of Visible Light 9h 46m
Length of Day
8h 32m
Waxing Gibbous, 98% of the Moon is Illuminated
Jan 14
Waxing Gibbous
Jan 15
Full
Jan 23
Last Quarter
Jan 30
New
Feb 6
First Quarter

Hourly Weather History & Observations

Time (CST) Temp. Windchill Dew Point Humidity Pressure Visibility Wind Dir Wind Speed Gust Speed Precip Events Conditions
12:00 AM 3.2 °F -9.1 °F -0.4 °F 85% 29.80 in 1.5 mi North 6.9 mph - N/A Snow Light Snow
1:00 AM 3.2 °F -10.3 °F -0.4 °F 85% 29.82 in 2.5 mi North 8.1 mph - N/A Snow Light Snow
2:00 AM 3.2 °F -7.8 °F -0.4 °F 85% 29.85 in 2.5 mi NNE 5.8 mph - N/A Snow Light Snow
3:00 AM 3.2 °F -7.8 °F -0.4 °F 85% 29.89 in 3.0 mi NNE 5.8 mph - N/A Snow Light Snow
4:00 AM 3.2 °F -6.2 °F -0.4 °F 85% 29.92 in 3.0 mi North 4.6 mph - N/A Snow Light Snow
5:00 AM 5.0 °F -8.1 °F 1.4 °F 85% 29.96 in 1.5 mi NW 8.1 mph - N/A Snow Light Snow
6:00 AM 5.0 °F - 1.4 °F 85% 29.98 in 3.0 mi NW 2.3 mph - N/A Snow Light Snow
7:00 AM 5.0 °F -8.1 °F 1.4 °F 85% 30.02 in 4.0 mi NW 8.1 mph - N/A Snow Light Snow
8:00 AM 6.8 °F -10.7 °F 3.2 °F 85% 30.05 in 6.0 mi NW 15.0 mph - N/A Snow Light Snow
9:00 AM 6.8 °F -10.7 °F 3.2 °F 85% 30.08 in 3.0 mi NNW 15.0 mph - N/A Snow Light Snow
10:00 AM 6.8 °F -6.9 °F 1.4 °F 79% 30.12 in 6.0 mi NNW 9.2 mph - N/A Snow Light Snow
10:33 AM 5.0 °F -14.2 °F -0.4 °F 78% 30.14 in 12.0 mi NNW 17.3 mph - N/A Snow Low Drifting Snow
11:00 AM 6.8 °F -12.9 °F -0.4 °F 72% 30.16 in 12.0 mi NW 19.6 mph - N/A Snow Low Drifting Snow
12:00 PM 6.8 °F -10.7 °F 1.4 °F 79% 30.18 in 12.0 mi NNW 15.0 mph - N/A Snow Light Snow
1:00 PM 8.6 °F -10.5 °F 3.2 °F 79% 30.19 in 6.0 mi NNW 19.6 mph 25.3 mph N/A Snow Light Snow
2:00 PM 8.6 °F -9.5 °F 1.4 °F 73% 30.21 in 10.0 mi NNW 17.3 mph - N/A Snow Light Snow
3:00 PM 8.6 °F -5.5 °F 3.2 °F 79% 30.23 in 5.0 mi NW 10.4 mph - N/A Snow Light Snow
4:00 PM 8.6 °F -1.3 °F 3.2 °F 79% 30.24 in 9.0 mi WNW 5.8 mph - N/A Snow Light Snow
5:00 PM 6.8 °F -12.4 °F 1.4 °F 79% 30.25 in 12.0 mi WNW 18.4 mph - N/A   Scattered Clouds
6:00 PM 1.4 °F -20.5 °F -5.8 °F 72% 30.26 in 15.0 mi NW 20.7 mph - N/A   Partly Cloudy
7:00 PM -0.4 °F -21.7 °F -7.6 °F 72% 30.29 in 15.0 mi NW 18.4 mph - N/A   Partly Cloudy
8:00 PM -4.0 °F -21.2 °F -11.2 °F 71% 30.31 in 15.0 mi NNW 10.4 mph - N/A   Partly Cloudy
9:00 PM -5.8 °F -25.2 °F -11.2 °F 77% 30.30 in 15.0 mi NNW 12.7 mph - N/A   Clear
10:00 PM -11.2 °F -29.0 °F -16.6 °F 77% 30.31 in 15.0 mi WNW 9.2 mph - N/A   Clear
11:00 PM -13.0 °F -27.0 °F -16.6 °F 84% 30.28 in 15.0 mi WNW 5.8 mph - N/A   Clear